Regional Weather Roundup
Issued by NWS Cleveland, OH

Home | Current Version | Previous Version | Graphics & Text | Print | Product List | Glossary On
Versions: 1 2 3 4 5 6 7 8 9 10 11 12 13 14 15 16 17 18 19 20 21 22 23 24 25 26 27 28 29 30 31 32 33 34 35 36 37 38 39 40 41 42 43 44 45 46 47 48 49 50
000
ASUS41 KCLE 230500
RWRCLE
OHIO REGIONAL WEATHER ROUNDUP
NATIONAL WEATHER SERVICE WILMINGTON, OH
100 AM EDT THU OCT 23 2014

NOTE: "FAIR" INDICATES FEW OR NO CLOUDS BELOW 12,000 FEET WITH NO
SIGNIFICANT WEATHER AND/OR OBSTRUCTIONS TO VISIBILITY.

OHZ001>008-015>018-024>027-034-035-043-044-230600-
   NORTHWEST OHIO

CITY           SKY/WX    TMP DP  RH WIND       PRES   REMARKS
DEFIANCE       CLEAR     37  34  89 CALM      30.29S
FINDLAY        MOCLDY    44  39  82 W3        30.26S
TOLEDO EXPRESS CLEAR     39  37  92 NW3       30.28R
TOLEDO METCALF PTCLDY    41  37  86 NW6       30.28S
LIMA           CLOUDY    44  40  85 CALM      30.27S
$$

OHZ009>014-019>023-028>033-038-089-230600-
   NORTHEAST OHIO

CITY           SKY/WX    TMP DP  RH WIND       PRES   REMARKS
CLE-HOPKINS    CLOUDY    50  45  83 N7        30.24F
CLE-LAKEFRONT  CLOUDY    53  45  74 N13G21    30.21F
CUY CO. ARPT   NOT AVBL
LORAIN-ELYRIA  CLOUDY    49  44  83 N6        30.23F
ASHTABULA      PTCLDY    43  41  93 CALM      30.19F
AKRON-CANTON   CLOUDY    47  43  86 NW6       30.19F
WOOSTER        NOT AVBL
MANSFIELD      CLOUDY    43  41  93 NW5       30.23F
YOUNGSTOWN     CLOUDY    45  42  89 NW3       30.17F
$$

OHZ042-051>053-060>062-070>072-077>081-230600-
  SOUTHWEST OHIO

CITY           SKY/WX    TMP DP  RH WIND       PRES   REMARKS
CINC-COVINGTON CLOUDY    49  38  65 NE6       30.26S
CINC-LUNKEN    CLOUDY    47  40  76 CALM      30.27F
HAMILTON       CLOUDY    43  40  89 CALM      30.27F
DAYTON         NOT AVBL
WRIGHT-PAT AFB CLOUDY    46  41  83 NW2       30.26F
DAYTON GENERAL CLOUDY    45  40  82 NW3       30.25F
WILMINGTON     CLOUDY    47  40  76 N5        30.25S
$$

OHZ036-037-039>041-045>050-054>059-063>069-073>076-082>088-230600-
  CENTRAL AND SOUTHEAST OHIO

CITY           SKY/WX    TMP DP  RH WIND       PRES   REMARKS
COLUMBUS       CLOUDY    48  41  76 NW8       30.23F
OSU AIRPORT    CLOUDY    47  40  76 NW9       30.24F
BOLTON FIELD   NOT AVBL
RICKENBACK AFB NOT AVBL
NEWARK         CLEAR     43  39  86 N3        30.21F
MARION         CLOUDY    44  40  85 NW6       30.25S
LANCASTER      PTCLDY    45  41  86 CALM      30.22F
ZANESVILLE     PTCLDY    43  39  86 CALM      30.20F
NEW PHILLY     MOCLDY    43  41  93 NW3       30.20F
$$



USA.gov is the U.S. government's official web portal to all federal, state and local government web resources and services.